Reflectivity
-20 -20 -20 4 -7 12 -20 -19 -19 -20 -20 14 20 19 13 31 9 -17 33 26 23 20 25 28 20 11 16 7 12 -17 2 20 15 -20 -16 -6 -13 -13 -7 16 8 -19 10 -9
-20 -20 -20 -20 -20 -20 3 -20 -6 -20 -20 2 11 0 -11 -20 -20 -20 -20 -19 -3 -9 8 11 9 21 33 16 -14 23 10 22 16 21 10 -3 3 -20 -20 -20 -6 14 13 11
-18 -16 -20 -20 -10 -20 -20 -15 -20 -15 -12 12 -18 -20 -20 -20 -20 -20 -20 -20 -20 -20 -20 -4 12 -18 12 24 37 31 35 11 4 2 12 17 18 -7 -11 -20 -7 -4 9 -11
-5 -7 -3 -6 -20 -20 -20 -20 -10 -1 -20 -20 -20 -20 -20 -20 -20 -20 -20 -19 -20 -20 -16 -20 -0 -16 -20 2 9 29 25 23 19 12 2 -14 1 16 6 2 -4 -19 -7 -12
-5 -7 -6 0 -8 -20 -20 -18 -20 -20 -20 -20 -20 -20 -20 -20 -20 -20 -20 -20 -20 -20 -20 2 -20 -20 -20 -14 -11 3 19 22 21 21 18 17 15 17 13 20 19 7 1 0
-20 -16 -14 -20 -20 -20 -20 -20 -20 -20 -20 -20 -20 -20 -20 -20 -20 -20 1 -14 -20 -20 -15 -0 -5 -20 -20 -20 -18 -20 4 8 20 16 18 18 23 18 13 9 7 -1 1 6
-20 -20 -18 -20 -20 -20 -20 -20 -20 -20 -20 -20 -20 -20 -20 -20 -20 -20 -20 -14 -20 -20 -20 -20 -6 -12 -20 -13 -20 -20 -11 -4 -1 8 14 12 12 13 12 13 13 -2 -7 -8
-20 -20 -20 -20 -20 -20 -20 -20 -20 -20 -20 -20 -20 -20 -20 -20 -20 -20 -20 -20 -20 -20 -20 -14 -20 -8 9 9 -15 -18 -16 -20 -20 -20 -16 -5 -2 -16 -7 -3 -10 -20 -20 -20
-20 -20 -20 -20 -20 -20 -20 -20 -20 -20 -20 -20 -20 -20 -20 -20 -20 -20 -20 -20 -20 -20 -15 -20 -20 -20 -20 -20 -20 -20 -20 -20 -20 -20 -20 -20 -20 -6 -20 -20 -20 -20 -20 -20
-20 -20 -20 -20 -20 -20 -20 -20 -20 -20 -20 -20 -20 -20 -20 -20 -20 -20 -20 -20 -20 -20 -20 -20 -20 -20 -20 -20 -20 -20 -20 -20 -20 -19 -20 -20 -20 -20 -20 -20 -20 -20 -20 -20
-20 -20 -20 -20 -20 -20 -20 -20 -20 -20 -20 -20 -20 -20 -20 -20 -20 -20 -20 -20 -20 -20 -20 -20 -20 -20 -20 -20 -20 -20 -20 -20 -20 -20 -20 -20 -20 -20 -20 -20 -20 -20 -20 -20
-20 -20 -20 -20 -20 -20 -20 -20 -20 -20 -20 -20 -20 -20 -20 -20 -20 -20 -20 -20 -20 -20 -20 -20 -20 -20 -20 -20 -20 -20 -20 -20 -20 -20 -20 -20 -20 -20 -20 -20 -20 -20 -20 -20
-20 -20 -20 -20 -20 -20 -20 -20 -20 -20 -20 -20 -20 -20 -20 -20 -20 -20 -20 -20 -20 -20 -20 -20 -20 -20 -20 -20 -20 -20 -20 -20 -20 -20 -20 -20 -20 -20 -20 -20 -20 -20 -20 -20
-20 -20 -20 -20 -20 -20 -20 -20 -20 -20 -20 -20 -20 -20 -20 -20 -20 -20 -20 -20 -20 -20 -20 -20 -20 -20 -20 -20 -20 -20 -20 -20 -20 -20 -20 -20 -20 -20 -20 -20 -20 -20 -20 -20
-20 -20 -20 -20 -20 -20 -20 -20 -20 -20 -20 -20 -20 -20 -20 -20 -20 -20 -20 -20 -20 -20 -20 -20 -20 -20 -20 -20 -20 -20 -20 -20 -20 -20 -20 -20 -20 -20 -20 -20 -20 -20 -20 -20
-20 -20 -20 -20 -20 -20 -20 -20 -20 -20 -20 -20 -20 -20 -20 -20 -20 -20 -20 -20 -20 -20 -20 -20 -20 -20 -20 -20 -20 -20 -20 -20 -20 -20 -20 -20 -20 -20 -20 -20 -20 -20 -20 -20
-20 -20 -20 -20 -20 -20 -20 -20 -20 -20 -20 -20 -20 -20 -20 -20 -20 -20 -20 -20 -20 -20 -20 -20 -20 -20 -20 -20 -13 -20 -20 -20 -20 -20 -20 -20 -20 -20 -20 -20 -20 -20 -20 -20
-20 -20 -20 -20 -20 -20 -20 -20 -20 -20 -20 -20 -20 -20 -20 -20 -20 -20 -20 -20 -20 -20 -20 -20 -20 -20 -20 -20 -12 -20 -20 -20 -20 -20 -20 -20 -20 -20 -20 -20 -20 -20 -20 -20
-20 -20 -20 -20 -20 -20 -20 -20 -20 -20 -20 -20 -20 -20 -20 -20 -20 -20 -20 -20 -20 -20 -20 -20 -20 -20 4 10 -8 -20 -20 -20 -20 -20 -20 -20 -20 -20 -20 -20 -20 -20 -20 -20
-20 -20 -20 -20 -20 -20 -20 -20 -20 -20 -20 -20 -20 -20 -20 -20 -20 -20 -20 -20 -20 -20 -20 -20 -20 -20 -20 -3 -8 -8 -20 -20 -20 -20 -20 -20 -20 -20 -20 -20 -20 -20 -20 -20
-20 -20 -20 -20 -20 -20 -20 -20 -20 -20 -20 -20 -20 -20 -20 -20 -20 -20 -20 -20 -20 -20 -20 -20 -20 -20 -3 -20 -20 -8 -20 -20 -20 -20 -20 -20 -20 -20 -20 -20 -20 -20 -20 -20
-20 -20 -20 -20 -20 -20 -20 -20 -20 -20 -20 -20 -20 -20 -20 -20 -20 -20 -20 -20 -20 -20 -20 -20 -20 -20 -20 -20 -20 -20 -2 -9 -19 -20 -20 -20 -20 -20 -20 -20 -20 -20 -20 -20
-20 -20 -20 -20 -20 -20 -20 -20 -20 -20 -20 -20 -20 -20 -20 -20 -20 -20 -20 -20 -20 -20 -20 -20 -20 -20 -20 -20 -20 -20 -20 -13 -17 -20 -20 -20 -20 -20 -20 -20 -20 -20 -20 -20
-20 -20 -20 -20 -20 -20 -20 -20 -20 -20 -20 -20 -20 -20 -20 -20 -20 -20 -20 -20 -20 -20 -20 -20 -20 -20 -20 4 -20 -20 -20 -20 -20 -20 -20 -20 -20 -20 -20 -20 -20 -20 -20 -20
-20 -20 -20 -20 -20 -20 -20 -20 -20 -20 -20 -20 -20 -20 -20 -20 -20 -20 -20 -20 -20 -20 -20 -4 2 -20 -20 -14 -20 -20 -20 -20 -20 -20 -20 -20 -20 -20 -20 -20 -20 -20 -20 -20
-20 -20 -20 -20 -20 -20 -20 -20 -20 -20 -20 -20 -20 -20 -20 -20 -20 -20 -20 -20 -20 -20 -20 -20 2 -20 -20 -20 -20 -20 -20 -20 -20 -20 -20 -20 -20 -20 -20 -20 -20 -20 -20 -20
-20 -20 -20 -20 -20 -20 -20 -20 -20 -20 -20 -20 -20 -20 -20 -20 -20 -20 -20 -20 -20 -20 -20 -2 -3 -19 -20 -20 -20 -20 -20 -20 -20 -20 -20 -20 -20 -20 -20 -20 -20 -20 -20 -20
Wind_Speed
20 21 20 20 21 21 8 5 4 5 5 4 2 4 15 12 17 14 9 11 15 17 22 23 21 18 17 13 10 11 9 6 11 9 4 3 4 5 10 5 6 6 5 6
20 20 19 19 19 17 5 3 4 4 3 4 7 12 12 9 13 13 10 9 8 9 9 9 13 21 19 13 16 11 11 7 5 4 4 2 3 6 5 3 2 6 6 6
20 19 20 19 17 14 4 3 3 2 4 3 6 9 9 13 13 7 10 8 10 15 7 1 8 12 7 14 17 20 8 7 5 5 5 4 7 10 6 4 4 5 6 14
18 19 18 18 18 14 1 2 4 5 5 7 7 7 9 10 11 10 13 7 16 12 8 11 8 8 11 8 16 13 8 12 13 20 22 26 22 20 19 9 3 4 12 14
21 19 19 19 19 10 2 2 3 5 5 8 7 13 8 7 11 6 7 11 15 11 7 6 9 10 10 9 14 11 6 11 10 12 16 26 23 20 13 12 14 19 18 11
21 20 18 20 21 9 3 3 1 4 7 5 3 6 7 8 12 5 5 13 8 8 8 8 4 8 7 7 11 10 7 10 5 5 7 6 14 19 11 10 12 2 5 6
22 23 19 21 21 12 4 3 1 4 4 4 4 5 5 9 9 6 11 7 6 5 15 11 10 8 4 9 14 15 7 3 4 5 3 7 3 6 13 14 9 9 12 6
25 24 22 19 20 20 6 3 2 4 5 3 5 11 6 11 5 4 5 4 5 12 8 4 4 0 2 6 11 18 15 1 7 5 7 6 4 4 5 4 3 5 4 5
25 24 22 26 18 10 5 5 3 5 6 10 5 5 4 6 8 6 4 6 10 8 3 4 8 8 6 9 18 15 16 17 7 3 6 5 4 3 3 4 3 3 3 4
19 25 26 24 19 21 8 5 4 6 7 3 1 5 5 4 4 5 6 10 11 9 5 6 7 5 4 8 10 12 12 9 13 10 7 5 3 6 3 1 4 4 1 4
19 17 15 19 23 23 7 2 6 4 6 3 6 5 3 2 2 5 7 4 4 7 7 4 4 6 5 3 2 6 9 7 6 3 5 5 3 4 3 3 4 4 5 6
19 17 19 15 13 11 7 5 3 3 6 3 4 5 3 5 3 3 4 3 2 4 2 4 3 4 3 2 5 1 4 5 4 4 3 3 3 3 2 1 3 4 6 7
17 20 21 18 14 12 7 3 2 3 4 3 2 3 1 4 4 3 3 2 1 3 2 3 3 8 2 5 6 4 3 3 3 3 3 5 4 4 6 7 10 7 9 9
6 6 7 10 13 15 7 4 2 1 3 3 1 1 3 6 4 4 4 1 3 4 1 4 4 4 3 3 2 3 3 3 4 4 5 7 7 9 7 7 10 11 12 13
14 13 12 9 5 13 10 5 4 2 1 3 2 1 1 6 6 6 6 3 2 3 4 5 4 2 1 1 2 2 3 1 3 4 2 3 7 3 4 8 11 12 12 13
8 8 12 14 4 9 2 1 2 8 3 3 2 1 5 9 7 8 12 7 5 4 3 3 2 1 1 3 3 4 4 5 5 5 1 6 10 8 9 10 12 12 11 12
3 6 10 12 9 3 4 3 5 11 0 2 2 2 5 8 4 4 5 5 4 4 3 4 1 1 1 0 6 12 7 8 8 8 1 10 8 7 2 8 9 10 10 11
2 2 6 10 12 8 4 4 10 2 4 5 4 4 2 11 5 5 6 4 2 6 3 1 2 2 2 3 10 11 9 7 8 9 13 13 7 9 12 9 8 11 12 10
2 1 6 2 4 3 2 3 6 5 6 6 4 6 6 9 4 3 3 3 3 1 3 3 3 1 5 8 13 13 13 10 11 9 8 11 12 15 14 12 12 12 13 12
3 2 1 3 2 5 2 4 4 8 7 6 4 1 4 5 5 3 5 3 3 1 3 3 1 2 0 5 7 10 12 12 9 7 10 7 11 11 13 12 11 12 12 12
2 2 2 1 5 1 4 5 6 5 4 4 2 1 5 2 3 4 3 2 2 1 3 3 1 2 5 10 8 11 11 11 12 11 14 14 15 14 14 15 15 13 14 13
2 4 3 2 6 5 8 4 3 5 4 4 4 4 2 2 1 2 2 3 2 2 4 2 1 1 9 15 14 15 14 14 15 15 15 15 15 15 14 14 15 14 14 14
2 5 7 6 6 13 6 7 5 5 5 3 5 6 3 2 1 1 3 3 3 2 2 3 2 7 15 16 15 16 15 16 16 16 15 16 16 16 14 16 14 15 14 14
6 6 9 6 5 2 3 3 3 3 3 6 5 3 3 2 3 2 4 2 2 4 6 5 8 17 19 17 15 16 19 17 17 17 16 16 15 15 15 14 14 13 14 14
6 6 5 3 1 2 2 3 4 1 3 5 3 2 2 2 2 1 3 7 6 2 5 9 14 19 18 18 18 18 18 16 15 15 15 15 15 14 14 13 12 13 13 14
6 7 5 1 1 3 2 1 3 2 4 1 1 2 2 6 3 5 4 6 4 7 10 12 15 17 17 18 18 17 16 16 16 15 15 15 15 15 15 15 13 11 12 12
6 3 2 2 2 0 2 1 3 4 3 4 2 7 5 4 5 5 3 4 10 13 13 11 15 18 18 17 15 15 16 16 15 15 15 15 15 14 12 14 14 14 13 12
Wind_Direction
353 347 343 354 354 352 354 328 281 12 327 293 245 280 315 329 4 14 320 336 355 348 337 283 252 221 213 201 170 170 206 217 218 204 49 347 61 196 188 213 186 239 278 112
356 355 349 349 350 355 333 321 286 23 314 310 323 353 321 2 352 345 351 322 350 339 332 335 334 341 316 245 176 190 164 214 200 151 147 83 80 38 350 57 52 201 229 129
4 355 356 351 346 349 356 329 333 61 59 62 3 345 347 334 339 307 5 345 341 328 293 135 295 329 334 6 5 344 225 70 340 223 78 37 73 23 341 358 203 91 34 138
9 3 360 352 349 344 137 6 43 3 7 14 9 340 7 342 346 350 12 2 359 338 295 328 9 343 345 338 7 343 48 53 64 60 74 81 76 57 46 62 21 37 126 121
22 13 8 4 4 351 36 54 356 61 31 353 4 8 24 331 334 313 359 358 338 20 49 13 335 347 8 22 319 5 22 137 102 65 78 72 56 47 53 50 69 89 104 92
24 21 20 15 5 16 58 17 37 89 16 352 355 15 330 308 344 265 318 336 328 29 29 337 50 87 107 63 8 339 338 153 125 152 214 306 38 3 45 66 28 44 102 109
34 32 30 28 23 30 58 33 6 80 32 20 14 325 319 290 314 277 310 319 350 3 325 301 246 235 208 27 25 19 350 63 64 117 320 48 217 66 83 80 51 65 89 87
41 42 45 35 44 45 75 17 53 109 90 330 333 333 312 304 291 276 271 313 343 305 296 260 306 35 340 348 9 19 7 92 85 89 56 148 144 41 20 355 74 29 63 25
47 47 48 50 47 53 78 51 340 81 122 12 305 316 335 340 337 325 273 321 314 328 290 34 26 27 326 336 332 6 11 30 76 91 77 77 60 41 355 215 116 163 43 6
50 52 52 54 54 57 78 48 352 80 99 38 321 14 319 312 288 270 302 342 344 344 31 53 28 38 308 14 9 341 344 4 43 48 92 94 39 321 309 234 70 146 28 331
55 50 45 50 55 52 68 78 7 89 98 110 188 186 313 299 339 344 339 280 25 1 53 46 32 34 37 62 4 347 2 347 18 18 80 65 23 263 330 62 167 208 280 310
57 55 54 58 55 55 47 65 23 26 71 143 185 199 193 181 220 275 329 54 340 19 78 61 118 56 35 294 43 132 22 14 0 355 51 352 299 296 349 232 260 247 257 284
67 64 66 65 63 63 84 108 352 54 105 117 75 354 33 213 200 202 321 101 113 71 327 96 95 80 277 23 37 287 130 179 305 276 178 252 257 248 243 215 231 248 254 283
59 66 67 68 70 73 79 72 357 47 101 88 77 220 38 341 25 188 223 70 131 103 46 68 64 79 338 70 28 349 9 271 337 264 258 272 247 238 251 243 245 258 267 276
67 52 26 346 225 108 86 86 59 45 341 121 138 205 51 9 8 46 74 100 100 33 59 45 60 77 205 64 234 36 195 313 336 302 201 254 279 249 238 243 253 263 270 276
51 31 21 24 58 137 179 155 89 24 8 110 141 9 360 357 353 24 33 35 56 64 60 85 101 163 297 44 14 266 217 221 229 261 34 239 276 293 248 260 261 261 257 260
352 21 27 37 57 74 53 75 322 341 318 87 91 23 29 345 340 29 3 31 49 50 92 60 46 94 315 111 18 332 305 251 242 238 253 275 233 246 234 225 260 279 280 265
276 14 68 95 80 96 57 18 13 45 89 44 43 330 344 5 0 354 4 1 28 29 97 135 17 198 238 22 338 324 313 285 264 240 213 249 307 286 261 240 256 261 261 261
241 29 118 78 28 46 20 69 58 46 46 88 58 347 325 357 23 349 328 345 58 322 51 46 287 301 53 339 323 324 327 309 295 301 245 250 250 267 274 268 261 250 260 257
77 70 87 40 9 289 12 6 20 25 20 35 78 209 313 342 346 0 328 5 47 56 44 292 319 97 340 293 323 308 305 312 307 292 302 298 274 275 278 273 266 259 263 270
49 50 77 285 318 62 32 44 35 347 41 28 46 7 318 49 327 333 34 344 339 17 38 321 22 201 332 331 330 339 306 304 310 283 274 278 276 278 281 282 276 273 270 263
116 106 91 46 27 34 57 10 343 25 347 359 347 341 301 327 277 309 11 329 297 3 333 300 339 323 327 342 339 337 332 324 316 314 305 297 289 284 279 277 279 275 272 272
61 50 49 29 330 37 41 345 323 329 356 27 340 325 349 317 346 284 317 331 1 286 328 344 298 321 343 338 336 334 329 327 323 319 314 307 302 296 286 284 279 277 272 269
60 56 30 58 3 21 217 236 264 307 310 340 326 295 331 347 327 338 320 43 268 1 357 341 336 340 334 335 333 329 329 329 326 322 317 313 310 305 302 292 286 284 277 276
74 63 67 56 2 293 328 312 299 312 316 325 309 262 316 333 310 350 304 356 2 21 329 318 328 331 331 331 332 330 327 327 328 326 322 319 316 313 310 307 298 286 283 283
71 54 89 94 49 335 324 332 295 358 321 265 218 313 349 43 343 11 36 322 320 333 325 319 320 325 325 326 327 326 328 328 324 323 324 321 320 318 313 311 311 305 292 282
62 60 20 76 93 160 294 314 310 316 313 14 335 38 353 283 356 2 14 356 315 312 312 313 317 318 319 320 318 328 326 324 325 324 325 321 316 313 315 325 325 319 310 299